Hallock, MN

8:29 AM CDT on July 26, 2016 (GMT -0500)
Hallock Municipal

Weather History for KHCO - June, 2013

Change the Weather History Date:

Thursday, June 20, 2013

  Actual Average Record
Temperature  
Mean Temperature 72 °F -  
Max Temperature 80 °F 75 °F 93 °F (1988)
Min Temperature 64 °F 52 °F 31 °F (1969)
Cooling Degree Days 7    
Growing Degree Days 22 (Base 50)    
Moisture  
Dew Point 61 °F    
Average Humidity 68    
Maximum Humidity 83    
Minimum Humidity 53    
Precipitation  
Precipitation 0.00 in - - ()
Sea Level Pressure  
Sea Level Pressure 29.89 in    
Wind  
Wind Speed 10 mph (ESE)    
Max Wind Speed 20 mph    
Max Gust Speed 24 mph    
Visibility 10 miles    
Events Rain    
Averages and records for this station are not official NWS values.
T = Trace of Precipitation, MM = Missing Value Source: NWS Daily Summary

Daily Weather History Graph

Daily Weather History Graph

Search for Another Location

Airport or City:

Trip Planner

Search our weather history database for the weather conditions in past years. The results will help you decide how hot, cold, wet, or windy it might be!

Date:

Astronomy

Jun. 20, 2013 Rise Set
Actual Time 5:24 AM CDT 9:34 PM CDT
Civil Twilight 4:41 AM CDT 10:16 PM CDT
Nautical Twilight 3:41 AM CDT 11:17 PM CDT
Astronomical Twilight 2:01 AM CDT 12:57 AM CDT
Moon 6:28 PM CDT (6/20) 3:04 AM CDT (6/20)
Length of Visible Light 17h 34m
Length of Day
16h 09m
Waxing Gibbous, 89% of the Moon is Illuminated
Jun 20
Waxing Gibbous
Jun 23
Full
Jun 29
Last Quarter
Jul 8
New
Jul 15
First Quarter

Hourly Weather History & Observations

Time (CDT) Temp. Heat Index Dew Point Humidity Pressure Visibility Wind Dir Wind Speed Gust Speed Precip Events Conditions
12:13 AM 71.6 °F - 53.6 °F 53% 29.89 in 10.0 mi ENE 12.7 mph - N/A   Clear
12:33 AM 71.6 °F - 53.6 °F 53% 29.90 in 10.0 mi East 10.4 mph - N/A   Clear
12:54 AM 71.6 °F - 53.6 °F 53% 29.90 in 10.0 mi East 11.5 mph - N/A   Clear
1:13 AM 69.8 °F - 53.6 °F 56% 29.90 in 10.0 mi East 10.4 mph - N/A   Clear
1:33 AM 69.8 °F - 53.6 °F 56% 29.89 in 10.0 mi ENE 10.4 mph - N/A   Clear
1:54 AM 69.8 °F - 53.6 °F 56% 29.88 in 10.0 mi East 11.5 mph - N/A   Clear
2:13 AM 68.0 °F - 51.8 °F 56% 29.88 in 10.0 mi East 10.4 mph - N/A   Clear
2:33 AM 66.2 °F - 53.6 °F 64% 29.87 in 10.0 mi East 10.4 mph - N/A   Clear
2:54 AM 66.2 °F - 53.6 °F 64% 29.88 in 10.0 mi East 10.4 mph - N/A   Mostly Cloudy
3:13 AM 66.2 °F - 53.6 °F 64% 29.89 in 10.0 mi East 10.4 mph - N/A   Scattered Clouds
3:33 AM 66.2 °F - 53.6 °F 64% 29.88 in 10.0 mi East 11.5 mph - N/A   Scattered Clouds
3:54 AM 66.2 °F - 55.4 °F 68% 29.88 in 10.0 mi ENE 12.7 mph - N/A   Clear
4:13 AM 64.4 °F - 55.4 °F 73% 29.88 in 10.0 mi East 10.4 mph - N/A   Clear
4:33 AM 64.4 °F - 55.4 °F 73% 29.87 in 10.0 mi East 10.4 mph - N/A   Clear
4:54 AM 64.4 °F - 57.2 °F 77% 29.87 in 10.0 mi East 9.2 mph - N/A   Clear
5:13 AM 64.4 °F - 57.2 °F 77% 29.86 in 10.0 mi East 11.5 mph - N/A   Clear
5:33 AM 64.4 °F - 57.2 °F 77% 29.85 in 10.0 mi East 12.7 mph - N/A   Clear
5:54 AM 64.4 °F - 59.0 °F 83% 29.86 in 10.0 mi East 9.2 mph - N/A   Clear
6:13 AM 66.2 °F - 59.0 °F 78% 29.86 in 10.0 mi East 9.2 mph - N/A   Clear
6:33 AM 64.4 °F - 59.0 °F 83% 29.87 in 10.0 mi East 8.1 mph - N/A   Clear
6:54 AM 66.2 °F - 60.8 °F 83% 29.87 in 10.0 mi East 9.2 mph - N/A   Clear
7:13 AM 66.2 °F - 60.8 °F 83% 29.87 in 10.0 mi East 12.7 mph - N/A   Clear
7:33 AM 68.0 °F - 60.8 °F 78% 29.88 in 10.0 mi East 9.2 mph - N/A   Clear
7:54 AM 68.0 °F - 60.8 °F 78% 29.88 in 10.0 mi East 12.7 mph - N/A   Clear
8:13 AM 69.8 °F - 62.6 °F 78% 29.89 in 10.0 mi ESE 9.2 mph - N/A   Clear
8:34 AM 71.6 °F - 62.6 °F 73% 29.91 in 10.0 mi SE 8.1 mph - N/A   Clear
8:53 AM 73.4 °F - 62.6 °F 69% 29.90 in 10.0 mi SSE 12.7 mph - N/A   Clear
9:13 AM 75.2 °F - 64.4 °F 69% 29.91 in 10.0 mi SSE 11.5 mph - N/A   Clear
9:34 AM 77.0 °F - 60.8 °F 57% 29.92 in 10.0 mi South 11.5 mph - N/A   Clear
9:53 AM 78.8 °F - 60.8 °F 54% 29.91 in 10.0 mi South 11.5 mph - N/A   Clear
10:13 AM 77.0 °F - 60.8 °F 57% 29.91 in 10.0 mi South 4.6 mph 9.2 mph N/A   Clear
10:34 AM 78.8 °F - 62.6 °F 57% 29.92 in 10.0 mi South 5.8 mph - N/A   Clear
10:53 AM 78.8 °F - 62.6 °F 57% 29.91 in 10.0 mi SSE 6.9 mph - N/A   Clear
11:13 AM 78.8 °F - 62.6 °F 57% 29.91 in 10.0 mi ESE 9.2 mph - N/A   Clear
11:34 AM 78.8 °F - 62.6 °F 57% 29.90 in 10.0 mi ESE 4.6 mph - N/A   Clear
11:53 AM 78.8 °F - 62.6 °F 57% 29.91 in 10.0 mi East 5.8 mph - N/A   Clear
12:13 PM 78.8 °F - 62.6 °F 57% 29.90 in 10.0 mi ESE 9.2 mph - N/A   Clear
12:34 PM 78.8 °F - 62.6 °F 57% 29.91 in 10.0 mi ESE 5.8 mph - N/A   Clear
12:53 PM 78.8 °F - 62.6 °F 57% 29.91 in 10.0 mi East 4.6 mph - N/A   Clear
1:13 PM 80.6 °F 81.8 °F 62.6 °F 54% 29.91 in 10.0 mi East 3.5 mph - N/A   Clear
1:33 PM 78.8 °F - 64.4 °F 61% 29.93 in 10.0 mi NNE 3.5 mph - N/A   Clear
1:53 PM 78.8 °F - 64.4 °F 61% 29.92 in 10.0 mi Calm Calm - N/A   Clear
2:13 PM 78.8 °F - 62.6 °F 57% 29.92 in 10.0 mi SE 5.8 mph - N/A   Clear
2:33 PM 78.8 °F - 64.4 °F 61% 29.90 in 10.0 mi ESE 6.9 mph - N/A   Clear
2:53 PM 78.8 °F - 62.6 °F 57% 29.88 in 10.0 mi SE 15.0 mph - N/A   Clear
3:13 PM 75.2 °F - 64.4 °F 69% 29.87 in 10.0 mi ESE 12.7 mph 17.3 mph N/A Rain Light Rain
3:33 PM 77.0 °F - 66.2 °F 69% 29.90 in 10.0 mi South 5.8 mph - N/A Rain Light Rain
3:53 PM 78.8 °F - 66.2 °F 65% 29.93 in 10.0 mi South 6.9 mph - N/A   Clear
4:13 PM 77.0 °F - 64.4 °F 65% 29.91 in 10.0 mi South 6.9 mph - N/A   Clear
4:33 PM 78.8 °F - 64.4 °F 61% 29.88 in 10.0 mi SE 10.4 mph - N/A Rain Light Rain
4:53 PM 78.8 °F - 66.2 °F 65% 29.88 in 10.0 mi ESE 9.2 mph - N/A   Clear
5:13 PM 77.0 °F - 64.4 °F 65% 29.87 in 10.0 mi ESE 9.2 mph - N/A   Clear
5:33 PM 75.2 °F - 64.4 °F 69% 29.82 in 10.0 mi SE 17.3 mph - N/A   Clear
5:53 PM 75.2 °F - 64.4 °F 69% 29.81 in 10.0 mi SE 19.6 mph 24.2 mph N/A   Clear
6:13 PM 75.2 °F - 64.4 °F 69% 29.82 in 10.0 mi SE 17.3 mph 20.7 mph N/A   Clear
6:33 PM 75.2 °F - 64.4 °F 69% 29.81 in 10.0 mi SE 15.0 mph - N/A   Clear
6:53 PM 75.2 °F - 64.4 °F 69% 29.88 in 10.0 mi North 12.7 mph - N/A   Scattered Clouds
7:13 PM 75.2 °F - 64.4 °F 69% 29.89 in 10.0 mi NNE 6.9 mph - N/A   Mostly Cloudy
7:33 PM 75.2 °F - 64.4 °F 69% 29.90 in 10.0 mi East 4.6 mph - N/A   Mostly Cloudy
7:53 PM 75.2 °F - 64.4 °F 69% 29.91 in 10.0 mi ESE 5.8 mph - N/A   Scattered Clouds
8:13 PM 73.4 °F - 64.4 °F 73% 29.91 in 10.0 mi SE 6.9 mph - N/A   Scattered Clouds
8:33 PM 73.4 °F - 64.4 °F 73% 29.89 in 10.0 mi ESE 6.9 mph - N/A   Clear
8:53 PM 71.6 °F - 64.4 °F 78% 29.88 in 10.0 mi East 5.8 mph - N/A   Clear
9:13 PM 71.6 °F - 64.4 °F 78% 29.88 in 10.0 mi East 4.6 mph - N/A   Clear
9:33 PM 69.8 °F - 64.4 °F 83% 29.88 in 10.0 mi East 6.9 mph - N/A   Clear
9:53 PM 69.8 °F - 64.4 °F 83% 29.85 in 10.0 mi East 9.2 mph - N/A   Clear
10:13 PM 71.6 °F - 64.4 °F 78% 29.86 in 10.0 mi ENE 9.2 mph - N/A   Clear
10:33 PM 71.6 °F - 64.4 °F 78% 29.86 in 10.0 mi East 5.8 mph - N/A   Clear
10:53 PM 69.8 °F - 64.4 °F 83% 29.87 in 10.0 mi East 4.6 mph - N/A   Clear
11:13 PM 69.8 °F - 64.4 °F 83% 29.88 in 10.0 mi ESE 5.8 mph - N/A   Clear
11:33 PM 69.8 °F - 64.4 °F 83% 29.89 in 10.0 mi SE 6.9 mph - N/A   Clear
11:54 PM 69.8 °F - 64.4 °F 83% 29.86 in 10.0 mi East 8.1 mph - N/A   Clear